Flag for Germany Weather past 2 weeks in Langen, Hesse, Germany

Now
30 °F

Light snow. Mostly cloudy.


Feels Like: 18 °F
Forecast: 21 / 30 °F
Wind: 17 mph from Northeast

Location: Frankfurt-M-Flughafen Airport

Current Time: Dec 27, 2014 at 9:48:04 PM

Latest Report: Dec 27, 2014 at 9:20 PM


Visibility: 4 mi

Pressure: 29.50 "Hg

Humidity: 93%

Dew point: 28 °F

Location of LangenLocation

Historic Weather in Langen — Graph

°F

Langen temperature yesterday

Maximum temperature yesterday: 41 °F (at 12:20 PM)
Minimum temperature yesterday: 32 °F (at 4:20 AM)
Average temperature yesterday: 35 °F

Past Weeks' High & Low Weather Summary

 TemperatureHumidityPressure
High57 °F (Dec 18, 7:50 PM)100% (Dec 13, 3:20 AM)30.48 "Hg (Dec 13, 3:20 AM)
Low30 °F (Dec 27, 6:20 PM)66% (Dec 20, 12:20 AM)29.42 "Hg (Dec 27, 2:50 PM)
Average42 °F87%30.06 "Hg
* Reported Dec 12 8:20 PM — Dec 27 8:50 PM, Langen, Weather by CustomWeather, © 2014

Note: Actual official high and low records may vary slightly from our data, if they occured in-between our weather recording intervals... More about our weather records

Advertising

Langen weather history for previous 24 hours

 ConditionsComfort  
Time TempWeatherWind HumidityBarometerVisibility
8:50 PM
Dec 27
30 °FLight snow. Passing clouds.16 mph93%29.50 "Hg3 mi
8:20 PM30 °FLight snow. Mostly cloudy.13 mph93%29.47 "Hg3 mi
7:50 PM30 °FLight snow. Mostly cloudy.14 mph100%29.47 "Hg4 mi
7:20 PM30 °FLight snow. Mostly cloudy.14 mph100%29.47 "Hg5 mi
6:50 PM30 °FLight snow. Mostly cloudy.13 mph100%29.45 "Hg2 mi
6:20 PM30 °FLight snow. Low clouds.14 mph100%29.45 "Hg2 mi
5:50 PM32 °FLight snow. Low clouds.16 mph93%29.45 "Hg2 mi
5:20 PM32 °FLight snow. Low clouds.14 mph100%29.42 "Hg2 mi
4:50 PM32 °FLight snow. Mostly cloudy.15 mph100%29.42 "Hg2 mi
4:20 PM32 °FLight snow. Mostly cloudy.14 mph100%29.42 "Hg2 mi
3:50 PM32 °FSnow. Mostly cloudy.13 mph100%29.42 "Hg1 mi
3:20 PM32 °FLight snow. Mostly cloudy.13 mph100%29.42 "Hg2 mi
2:50 PM32 °FSnow. Mostly cloudy.12 mph100%29.42 "Hg1 mi
2:20 PM32 °FSnow. Mostly cloudy.12 mph100%29.45 "Hg1 mi
1:50 PM32 °FSnow. Mostly cloudy.12 mph100%29.45 "Hg1 mi
1:20 PM32 °FSnow. Mostly cloudy.14 mph100%29.45 "Hg1 mi
12:50 PM32 °FSnow. Cloudy.15 mph100%29.45 "Hg1 mi
12:20 PM32 °FSnow. Cloudy.14 mph100%29.47 "Hg1 mi
11:50 AM32 °FSnow. Mostly cloudy.14 mph100%29.47 "Hg1 mi
11:20 AM32 °FSnow. Mostly cloudy.15 mph100%29.50 "Hg1 mi
10:50 AM32 °FSnow. Mostly cloudy.15 mph100%29.50 "Hg1 mi
10:20 AM32 °FSnow. Mostly cloudy.14 mph100%29.53 "Hg1 mi
9:50 AM32 °FSnow. Mostly cloudy.12 mph100%29.56 "Hg1 mi
9:20 AM32 °FSnow. Mostly cloudy.10 mph100%29.59 "Hg1 mi
8:50 AM32 °FSnow. Mostly cloudy.13 mph100%29.62 "Hg1 mi
8:20 AM34 °FSnow. Partly cloudy.13 mph93%29.62 "Hg2 mi
7:50 AM34 °FLight snow. Mostly cloudy.10 mph93%29.65 "Hg2 mi
7:20 AM34 °FLight snow. Mostly cloudy.9 mph93%29.68 "Hg2 mi
6:50 AM34 °FLight snow. Mostly cloudy.8 mph93%29.74 "Hg2 mi
6:20 AM34 °FLight snow. Mostly cloudy.9 mph93%29.77 "Hg3 mi
5:50 AM34 °FPartly cloudy.9 mph93%29.80 "HgN/A
5:20 AM34 °FPartly cloudy.10 mph93%29.83 "HgN/A
4:20 AM34 °FPassing clouds.7 mph93%29.92 "HgN/A
3:50 AM34 °FPassing clouds.8 mph93%29.95 "HgN/A
3:20 AM34 °FPartly cloudy.6 mph93%29.98 "HgN/A
2:50 AM34 °FPartly cloudy.6 mph93%30.01 "HgN/A
2:20 AM34 °FPassing clouds.7 mph93%30.04 "HgN/A
1:50 AM34 °FPassing clouds.5 mph93%30.07 "HgN/A
1:20 AM34 °FPassing clouds.7 mph93%30.09 "HgN/A
12:50 AM34 °FPartly cloudy.8 mph93%30.12 "HgN/A
12:20 AM32 °FPassing clouds.2 mph100%30.15 "HgN/A
11:50 PM
Dec 26
32 °FPassing clouds.No wind100%30.15 "HgN/A
11:20 PM32 °FPassing clouds.No wind100%30.18 "HgN/A
10:50 PM32 °FPassing clouds.No wind100%30.21 "HgN/A
10:20 PM32 °FPassing clouds.3 mph100%30.21 "HgN/A
9:50 PM32 °FPassing clouds.1 mph100%30.24 "HgN/A
9:20 PM34 °FPassing clouds.No wind93%30.27 "HgN/A
Weather by CustomWeather, © 2014

See weather overviewHow to use our weather pages